| time (UTC) | temp F | wind direction | speed knots | gust knots | rain 1hr in | rain 24hr in | rain mn in | humidity % | barometer mb |
| 20260504081541 | 36 | 290 | 0.0 | 0.0 | 0.00 | 0.00 | 0.00 | 94 | 972.3 |
| 20260504050017 | 41 | 291 | 0.0 | 0.0 | 0.00 | 0.00 | 0.00 | 85 | 972.6 |
| 20260504044523 | 41 | 291 | 0.0 | 2.6 | 0.00 | 0.00 | 0.00 | 85 | 972.7 |
| 20260504043115 | 40 | 290 | 0.0 | 0.0 | 0.00 | 0.00 | 0.00 | 88 | 972.5 |
| 20260504041512 | 40 | 290 | 0.0 | 0.0 | 0.00 | 0.00 | 0.00 | 86 | 972.5 |
| 20260504040009 | 41 | 290 | 0.0 | 0.0 | 0.00 | 0.00 | 0.00 | 85 | 972.6 |
| 20260504034507 | 42 | 290 | 0.0 | 0.0 | 0.00 | 0.00 | 0.00 | 85 | 972.6 |
| 20260504033008 | 42 | 290 | 0.0 | 0.0 | 0.00 | 0.00 | 0.00 | 84 | 972.4 |
| 20260504031507 | 43 | 360 | 0.0 | 0.9 | 0.00 | 0.00 | 0.00 | 83 | 972.5 |
| 20260504030008 | 43 | 360 | 0.0 | 1.7 | 0.00 | 0.00 | 0.00 | 80 | 972.7 |
| 20260504024508 | 44 | 360 | 0.0 | 3.5 | 0.00 | 0.00 | 0.00 | 79 | 972.8 |
| 20260504023008 | 45 | 360 | 0.9 | 2.6 | 0.00 | 0.00 | 0.00 | 77 | 972.6 |
| 20260504021505 | 45 | 360 | 0.0 | 0.0 | 0.00 | 0.00 | 0.00 | 77 | 972.3 |
| 20260504020009 | 46 | 360 | 0.0 | 0.9 | 0.00 | 0.00 | 0.00 | 75 | 972.3 |
| 20260504014507 | 48 | 360 | 0.0 | 0.0 | 0.00 | 0.00 | 0.00 | 72 | 972.1 |
| 20260504013002 | 49 | 360 | 0.0 | 0.9 | 0.00 | 0.00 | 0.00 | 70 | 971.8 |
| 20260504011501 | 50 | 360 | 0.0 | 0.9 | 0.00 | 0.00 | 0.00 | 66 | 971.8 |
| 20260504010002 | 51 | 360 | 0.9 | 1.7 | 0.00 | 0.00 | 0.00 | 65 | 971.5 |
| 20260504004501 | 53 | 208 | 0.0 | 0.9 | 0.00 | 0.00 | 0.00 | 61 | 971.4 |
| 20260504003000 | 56 | 208 | 0.0 | 1.7 | 0.00 | 0.00 | 0.00 | 52 | 971.4 |
| 20260504001618 | 58 | 208 | 0.9 | 1.7 | 0.00 | 0.00 | 0.00 | 48 | 971.3 |
| 20260504000059 | 60 | 208 | 0.0 | 1.7 | 0.00 | 0.00 | 0.00 | 42 | 971.0 |
| 20260504000001 | 60 | 208 | 0.0 | 1.7 | 0.00 | 0.00 | 0.00 | 42 | 971.0 |
| 20260503234559 | 61 | 74 | 0.0 | 7.8 | 0.00 | 0.00 | 0.00 | 40 | 970.8 |
| 20260503233059 | 63 | 24 | 0.0 | 1.7 | 0.00 | 0.00 | 0.00 | 38 | 970.7 |
| 20260503231558 | 65 | 201 | 0.0 | 4.3 | 0.00 | 0.00 | 0.00 | 35 | 970.7 |
| 20260503230100 | 67 | 214 | 0.0 | 3.5 | 0.00 | 0.00 | 0.00 | 33 | 970.7 |
| 20260503224556 | 67 | 99 | 0.9 | 3.5 | 0.00 | 0.00 | 0.00 | 32 | 970.7 |
| 20260503223056 | 66 | 166 | 2.6 | 7.8 | 0.00 | 0.00 | 0.00 | 31 | 970.7 |
| 20260503221556 | 69 | 228 | 2.6 | 6.1 | 0.00 | 0.00 | 0.00 | 29 | 970.7 |
| 20260503220055 | 68 | 227 | 0.0 | 6.1 | 0.00 | 0.00 | 0.00 | 31 | 970.7 |
| 20260503214552 | 67 | 17 | 0.9 | 6.1 | 0.00 | 0.00 | 0.00 | 27 | 970.8 |
| 20260503213056 | 68 | 196 | 0.9 | 6.1 | 0.00 | 0.00 | 0.00 | 28 | 971.0 |
| 20260503211548 | 67 | 273 | 3.5 | 7.8 | 0.00 | 0.00 | 0.00 | 28 | 971.1 |
| 20260503210052 | 67 | 227 | 2.6 | 9.6 | 0.00 | 0.00 | 0.00 | 30 | 971.4 |
| 20260503204543 | 66 | 208 | 3.5 | 9.6 | 0.00 | 0.00 | 0.00 | 29 | 971.5 |
| 20260503203050 | 65 | 251 | 3.5 | 9.6 | 0.00 | 0.00 | 0.00 | 28 | 971.8 |
| 20260503201542 | 65 | 217 | 3.5 | 7.8 | 0.00 | 0.00 | 0.00 | 31 | 971.8 |
| 20260503200046 | 65 | 5 | 1.7 | 7.0 | 0.00 | 0.00 | 0.00 | 31 | 972.1 |
| 20260503194542 | 64 | 213 | 2.6 | 7.0 | 0.00 | 0.00 | 0.00 | 30 | 972.3 |
| 20260503193044 | 65 | 267 | 2.6 | 7.0 | 0.00 | 0.00 | 0.00 | 32 | 972.5 |
| 20260503191536 | 63 | 86 | 2.6 | 10.4 | 0.00 | 0.00 | 0.00 | 29 | 972.7 |
| 20260503190035 | 63 | 202 | 2.6 | 6.1 | 0.00 | 0.00 | 0.00 | 30 | 972.9 |
| 20260503184535 | 62 | 150 | 4.3 | 7.8 | 0.00 | 0.00 | 0.00 | 30 | 973.0 |
| 20260503183050 | 63 | 323 | 4.3 | 9.6 | 0.00 | 0.00 | 0.00 | 30 | 973.4 |
| 20260503181531 | 60 | 5 | 1.7 | 7.8 | 0.00 | 0.00 | 0.00 | 32 | 973.6 |
| 20260503180029 | 60 | 188 | 3.5 | 7.8 | 0.00 | 0.00 | 0.00 | 34 | 973.7 |
| 20260503174528 | 59 | 317 | 3.5 | 13.0 | 0.00 | 0.00 | 0.00 | 33 | 973.9 |
| 20260503173028 | 58 | 298 | 4.3 | 9.6 | 0.00 | 0.00 | 0.00 | 35 | 974.0 |
| 20260503171526 | 58 | 245 | 4.3 | 13.0 | 0.00 | 0.00 | 0.00 | 32 | 974.2 |